Location: Baumgarten
(49.0970°N, 12.7493°E)
Time: 17:51:53
(UTC+00:00)

ATLAS CENTAUR R/B - Pass Details

Date: 05 July 2020
Orbit: 475 x 672 km, 64.7° (Epoch: 13 July)

Event Time Altitude Azimuth Distance (km) Brightness Sun altitude
Rises 21:52:05 0° 310° (NW) 2,561 5.8 -16.0°
Reaches altitude 10° 21:54:35 10° 294° (WNW) 1,660 4.4 -16.1°
Maximum altitude 21:57:24 21° 244° (WSW) 1,121 2.8 -16.2°
Enters shadow 21:58:26 19° 220° (SW) 1,204 2.7 -16.3°
